KSOW

Details ICAO KSOW (SOW)
Name SHOW LOW RGNL
Region United States
Timezone America/Phoenix (UTC-7.0)
Plans Departing 3
Arriving 6
Stats Elevation 6,415 ft / 1,955 m (AMSL)
Location 34.265180° -110.004980°
Runways 2
Magnetic Variation 9.730° E
Sunrise 2018-05-23 12:14:20 UTC / 2018-05-23 05:14:20 Local
Sunset 2018-05-24 02:22:07 UTC / 2018-05-23 19:22:07 Local
Advertisement - Login to hide

Runways

ID Width Length Bearing (true) Bearing (mag) Surface Threshold Offset Overrun Length
03 59 ft / 18 m 3,941 ft / 1,201 m 47.66° 37.93° Asphalt 0 ft / 0 m 0 ft / 0 m
06 98 ft / 30 m 7,207 ft / 2,197 m 75.91° 66.18° Asphalt 699 ft / 213 m 0 ft / 0 m
21 59 ft / 18 m 3,941 ft / 1,201 m 227.67° 217.94° Asphalt 0 ft / 0 m 0 ft / 0 m
24 98 ft / 30 m 7,207 ft / 2,197 m 255.92° 246.19° Asphalt 751 ft / 229 m 0 ft / 0 m

Map

Weather


0- 5 10 15 20 25 30 35+ Temperature / ° C

Clouds and Precipitation
Forecast for 2018-05-24 00:00 UTC. Updated 4 hours ago

Ground ~20,000 ft ~40,000 ft Winds

METAR

KSOW 240235Z AUTO 24010KT 10SM CLR 19/M08 A3014 RMK AO2

TAF

Not found

Frequencies

Recorded 118.07 MHz AWOS 3
Unicom 123.00 MHz CTAF/UNICOM
Warning: Do not use this data for real-world aviation or navigation. No guarantee of current accuracy is given.